Погода в Лагани

Погода в Лагани : погода сейчас, прогноз погоды и архив. Всё, что Вы хотите узнать о погоде в Лагани!

Поиск расширенной информации на нашем сайте:

Другие новости

Новости СМИ2

Главная страница сайта

Новости сайта

03.07.2017

Напоминаем, что на нашем специализированном сайте Метеоцентр.Азия вы можете получить высокодетализированные автоматические прогнозы погоды по пунктам России, СНГ и мира в авиационном формате (включающие направление и скорость ветра, видимость, явления погоды, количество и форму облачности, нижнюю и верхнюю границу облачности).


Погода в Лагани - сегодня

Время (UTC), дата Ветер
(°,м/с) 
Видим.   Явления Облачность Т
(°С)
Тd
(°С)
f(%) Тe
(°С)
Pmin
(гПа)
dP
(гПа)
Po
(мм)
O2
(г/м3)
Тmin Tmax R s Состояние
почвы
12 09.12.17 130 (ЮВ) 20000 м    3/0 средняя 
[Ac trans]
+0.2 -5.6 65 -2  1026.5  772  311           
15 09.12.17 130 (ЮВ) 10 км    ясно 
-3.7 -5.2 89 -5  1026.9  0.5  772  316    +2.2       
18 09.12.17 080 (В) 10 км    ясно 
-2.6 -3.4 94 -4  1026.6  -0.4  772  315           
21 09.12.17 090 (В) 4000 м  дымка  3/0 средняя 
[Ac trans]
-1.9 -2.5 96 -4  1026.2  -0.4  772  313           
00 10.12.17 080 (В) 4000 м  дымка  8/0 средняя 
[Ac trans]
-1.4 -2.3 94 -3  1025.9  -0.3  772  313           
03 10.12.17 100 (В) 4000 м  дымка  ясно 
-0.5 -1.3 94 -2  1025.4  -0.5  771  311  -3.9         
06 10.12.17 100 (В) 10 км    8/0 верхняя 
[Ci fib]
+3.3 +2 91 +1  1025.4  771  307           
09 10.12.17 110 (В) 20000 м    8/0 верхняя 
[Ci fib]
+6.9 +3.3 78 +5  1024.4  -1.1  770  302           
12 10.12.17 080 (В) 10 км    8/3 600 м средняя, верхняя 
[Sc|Ac trans|Ci fib]
+4.8 +2.3 84 +2  1023.8  -0.5  770  305           
15 10.12.17 090 (В) 10 км    6/0 средняя, верхняя 
[Ac trans|Ci fib]
+2.9 +0.8 86 +1  1023  -0.9  769  307    +6.9       
18 10.12.17 080 (В) 7-11{11}  10 км    10/10 600 м 
[Sc]
+3.3 +1.6 89 1021.7  -1.2  768  306           
21 10.12.17 070 (В) 6{12}  10 км    10/8 600 м средняя 
[Sc|Ac As]
+3.8 +2 88 +1  1020.5  -1.2  767  305           
00 11.12.17 070 (В) 6-10{11}  10 км    10/8 600 м средняя 
[Sc|Ac As]
+3.7 +1.9 88 +1  1020  -0.5  767  305           
03 11.12.17 080 (В) 6{11}  10 км    10/10 600 м 
[Sc]
+4 +2.2 88 +1  1020.2  -0.1  767  304  +2.9         
06 11.12.17 100 (В) 6{12}  10 км    10/10 300 м 
[St]
+5.1 +3.2 88 +3  1022.6  2.3  769  304           
09 11.12.17 050 (СВ) 2{10}  4000 м  дымка{ливн. осадки}  10/8 200 м средняя 
[St|Ac As]
+5.5 +4.7 95 +5  1023.9  1.3  770  303           
12 11.12.17 тихо ()   1000 м  дымка{ливн. осадки}  10/10 100 м 
[St]
+6 +5.1 94 +6  1025.3  1.5  771  303           
15 11.12.17 300 (СЗ) 4000 м  дымка  10/10 200 м 
[St]
+5.3 +4.3 93 +4  1027.4  773  305    +6.2  0.7     
18 11.12.17 300 (СЗ) 4000 м  дымка  4/0 средняя 
[Ac trans]
+2.5 +1.8 95 +3  1028.8  1.4  774  309           
21 11.12.17 тихо ()   1000 м  дымка  ясно 
+0.3 -0.2 96 1029  0.3  774  312           
00 12.12.17 тихо ()   4000 м  дымка  5/0 средняя, верхняя 
[Ac trans|Ci fib]
-0.7 -1.1 97 -1  1028.8  -0.2  774  313           
03 12.12.17 200 (Ю) 4000 м  дымка  8/0 средняя 
[Ac trans]
-0.2 -0.7 96 1029.4  0.5  774  312  -0.7         
06 12.12.17 280 (З) 10 км    10/0 средняя 
[Ac As]
+1 +0.3 95 +2  1029.5  0.2  774  311           
09 12.12.17 180 (Ю) 20000 м    8/0 средняя, верхняя 
[Ac trans|Ci sp]
+6 +2.2 77 +6  1028.6  -1.1  773  305           
12 12.12.17 110 (В) 20000 м    9/0 средняя 
[Ac As]
+5.6 +2.3 79 +6  1028.8  0.3  774  305           
Время (UTC), дата Ветер
(°,м/с) 
Видим.   Явления Облачность Т
(°С)
Тd
(°С)
f(%) Тe
(°С)
Pmin
(гПа)
dP
(гПа)
Po
(мм)
O2
(г/м3)
Тmin Tmax R s Состояние
почвы

Для получения пояснительной информации подведите курсор к названию столбца.

ПОГОДА в Лагани - архив

Всё, что Вы хотите узнать о погоде в Лагани - удобно и подробно!

Выберите нужную дату (начиная с 1 января 2015* года) и нажмите кнопку "Найти".
Будут отображены архивные сводки погоды по пункту Лагань, начиная с указанной даты.


Отображать данные в формате CSV (для использования в таблицах Excel)


Внимание! Наш архив погоды предназначен исключительно для личного некоммерческого использования в познавательных целях. Если Вам необходимы официальные справки о состоянии погоды (для производственных, юридических, коммерческих и т.п. целей), обращайтесь в органы Росгидромета.

*Примечание: данная дата относится к архиву по метеостанциям СССР (Россия, СНГ, Балтия).
Архив по метеостанциям Зарубежной Европы и Азии (кроме Китая) хранится 10 дней, по другим регионам земного шара (Китай, Африка, Америка, Австралия, Океания) - 1 день.

Лагань - район местоположения метеостанции


Название, широта, долгота, высота метеостанции:
Лагань 45.4°ш. 47.3°д. -24 м над ур. моря [Российская Федерация]

Дополнительная информация

В oтличие oт бoльшинства пoгoдных сайтoв мы публикуем пoдрoбную метеoинфoрмацию в детальнoм прoфессиoнальнoм фoрмате.

Характеристики температуры и влажнoсти вoздуха измеряются на высoте 2 м в тени вдали oт зданий и деревьев.
Скoрoсть ветра измеряется на высoте 10 м (на урoвне рoста челoвека скoрoсть ветра ниже в 1.5-2 раза). Если метеoстанция нахoдится в гoрoде или в лесу, тo скoрoсть ветра занижена на 2-4 м/с пo сравнению с oткрытым местoм. Скoрoсть ветра над акватoриями крупных рек и oзёр, а также на вершинах хoлмoв на 2-5 м/с выше, чем в oбычных услoвиях.
Атмoсфернoе давление в разных тoчках местнoсти мoжет значительнo oтличаться oт давления на метеoстанции, в зависимoсти oт услoвий рельефа (при пoдъёме на 10 м давление пoнижается примернo на 1 мм рт.ст.).